Zurück zum Katalog

KUIPER-00452

AktivKommunikationLEO
NORAD 68946·PAYLOAD·🇺🇸 United States

Gestartet Apr 30, 2026 von Guiana Space Centre

Loading…

Nächste Überflüge (nächste 24 Stunden)

TLE

AktuellSource: CelesTrak SupGP

Epoche: Sep 14, 2026, 19:37 UTC

1 68946C 26098AD  26257.81796296  .00007938  00000+0  10393-2 0  2579
2 68946  51.9028  14.3254 0000605  98.7634 137.0476 14.79918869    18

Verfolge KUIPER-00452 in Echtzeit mit AllMySat

Download on the App Store